,,,PA_Meas_PMT16A,,PR_Meas_QMR101_102,,RH_Meas_QMH101,,SR_Meas_QMS101,,TA_Meas_QMH101,,GenWind,,GenWind,
date,time,status,PA,status,PR,status,RH,status,SR,status,TA,status,DirAvg,status,SpdAvg,
2009-04-23, 00:00:05,VALID,1004.96,VALID,0,VALID,88.9299,VALID,0,VALID,24.9495,VALID,31,VALID,0.264453,
2009-04-23, 00:01:05,VALID,1004.97,VALID,0,VALID,89.0595,VALID,0,VALID,24.93,VALID,31,VALID,0.435156,
2009-04-23, 00:02:05,VALID,1004.96,VALID,0,VALID,89.2121,VALID,0,VALID,24.9125,VALID,31,VALID,0.215625,
2009-04-23, 00:03:05,VALID,1004.94,VALID,0,VALID,89.3647,VALID,0,VALID,24.8522,VALID,31,VALID,0.219922,
2009-04-23, 00:04:05,VALID,1004.96,VALID,0,VALID,89.5631,VALID,0,VALID,24.7937,VALID,31,VALID,0,
2009-04-23, 00:05:05,VALID,1004.98,VALID,0,VALID,89.7767,VALID,0,VALID,24.7353,VALID,31,VALID,0.198047,
2009-04-23, 00:06:05,VALID,1005,VALID,0,VALID,89.975,VALID,0,VALID,24.6769,VALID,30,VALID,0.566797,
2009-04-23, 00:07:05,VALID,1004.96,VALID,0,VALID,90.242,VALID,0,VALID,24.6185,VALID,26,VALID,0.45,
2009-04-23, 00:08:05,VALID,1004.99,VALID,0,VALID,90.5624,VALID,0,VALID,24.5601,VALID,24,VALID,0.401563,
2009-04-23, 00:09:05,VALID,1004.96,VALID,0,VALID,90.7226,VALID,0,VALID,24.5425,VALID,24,VALID,0.436328,
2009-04-23, 00:10:05,VALID,1004.94,VALID,0,VALID,90.982,VALID,0,VALID,24.4628,VALID,24,VALID,0.277734,
2009-04-23, 00:11:05,VALID,1004.93,VALID,0,VALID,91.1499,VALID,0.100563,VALID,24.4238,VALID,24,VALID,0,
2009-04-23, 00:12:05,VALID,1004.94,VALID,0,VALID,91.3024,VALID,0.100563,VALID,24.4025,VALID,24,VALID,0.254687,
2009-04-23, 00:13:05,VALID,1004.9,VALID,0,VALID,91.4932,VALID,0.100563,VALID,24.3636,VALID,24,VALID,0.335156,
2009-04-23, 00:14:05,VALID,1004.93,VALID,0,VALID,91.6457,VALID,0.100563,VALID,24.3228,VALID,24,VALID,0.238281,
2009-04-23, 00:15:05,VALID,1004.9,VALID,0,VALID,91.8136,VALID,0,VALID,24.3246,VALID,24,VALID,0.197266,
2009-04-23, 00:16:05,VALID,1004.86,VALID,0,VALID,91.9509,VALID,0,VALID,24.2857,VALID,24,VALID,0.21875,
2009-04-23, 00:17:05,VALID,1004.86,VALID,0,VALID,92.1035,VALID,0.100563,VALID,24.2662,VALID,24,VALID,0.239453,
2009-04-23, 00:18:05,VALID,1004.84,VALID,0,VALID,92.2179,VALID,0.100563,VALID,24.2273,VALID,24,VALID,0.375781,
2009-04-23, 00:19:05,VALID,1004.82,VALID,0,VALID,92.3095,VALID,0.100563,VALID,24.2273,VALID,24,VALID,0.259375,
2009-04-23, 00:20:05,VALID,1004.82,VALID,0,VALID,92.3857,VALID,0,VALID,24.2078,VALID,24,VALID,0.492578,
2009-04-23, 00:21:05,VALID,1004.8,VALID,0,VALID,92.4163,VALID,0.100563,VALID,24.1884,VALID,24,VALID,0.280078,
2009-04-23, 00:22:05,VALID,1004.8,VALID,0,VALID,92.5154,VALID,0,VALID,24.1689,VALID,24,VALID,0.290625,
2009-04-23, 00:23:05,VALID,1004.74,VALID,0,VALID,92.5765,VALID,0.100563,VALID,24.1494,VALID,24,VALID,0.21875,
2009-04-23, 00:24:05,VALID,1004.76,VALID,0,VALID,92.668,VALID,0,VALID,24.13,VALID,24,VALID,0,
2009-04-23, 00:25:05,VALID,1004.72,VALID,0,VALID,92.7138,VALID,0,VALID,24.1105,VALID,24,VALID,0,
2009-04-23, 00:26:05,VALID,1004.72,VALID,0,VALID,92.7748,VALID,0,VALID,24.0929,VALID,24,VALID,0.00351562,
2009-04-23, 00:27:05,VALID,1004.72,VALID,0,VALID,92.8206,VALID,0,VALID,24.0734,VALID,24,VALID,0.0699219,
2009-04-23, 00:28:05,VALID,1004.72,VALID,0,VALID,92.8435,VALID,0,VALID,24.0539,VALID,24,VALID,0.295312,
2009-04-23, 00:29:05,VALID,1004.71,VALID,0,VALID,92.8816,VALID,0,VALID,24.0345,VALID,24,VALID,0.159766,
2009-04-23, 00:30:05,VALID,1004.69,VALID,0,VALID,92.9045,VALID,0,VALID,24.015,VALID,24,VALID,0,
2009-04-23, 00:31:05,VALID,1004.64,VALID,0,VALID,92.935,VALID,0,VALID,24.0168,VALID,24,VALID,0,
2009-04-23, 00:32:05,VALID,1004.61,VALID,0,VALID,93.0113,VALID,0,VALID,23.9761,VALID,24,VALID,0,
2009-04-23, 00:33:05,VALID,1004.57,VALID,0,VALID,93.0495,VALID,0,VALID,23.9761,VALID,24,VALID,0,
2009-04-23, 00:34:05,VALID,1004.53,VALID,0,VALID,93.0647,VALID,0,VALID,23.9159,VALID,24,VALID,0,
2009-04-23, 00:35:05,VALID,1004.57,VALID,0,VALID,93.0723,VALID,0,VALID,23.8982,VALID,24,VALID,0,
2009-04-23, 00:36:05,VALID,1004.55,VALID,0,VALID,93.1257,VALID,0,VALID,23.8982,VALID,24,VALID,0,
2009-04-23, 00:37:05,VALID,1004.51,VALID,0,VALID,93.1181,VALID,0,VALID,23.8593,VALID,24,VALID,0,
2009-04-23, 00:38:05,VALID,1004.51,VALID,0,VALID,93.1791,VALID,0,VALID,23.8593,VALID,24,VALID,0,
2009-04-23, 00:39:05,VALID,1004.51,VALID,0,VALID,93.2554,VALID,0,VALID,23.8398,VALID,24,VALID,0,
2009-04-23, 00:40:05,VALID,1004.49,VALID,0,VALID,93.3622,VALID,0,VALID,23.8398,VALID,24,VALID,0,
2009-04-23, 00:41:05,VALID,1004.5,VALID,0,VALID,93.3775,VALID,0,VALID,23.8611,VALID,24,VALID,0,
2009-04-23, 00:42:05,VALID,1004.5,VALID,0,VALID,93.3622,VALID,0,VALID,23.8398,VALID,24,VALID,0,
2009-04-23, 00:43:05,VALID,1004.52,VALID,0,VALID,93.3622,VALID,0,VALID,23.8203,VALID,24,VALID,0,
2009-04-23, 00:44:05,VALID,1004.51,VALID,0,VALID,93.3699,VALID,0,VALID,23.8203,VALID,24,VALID,0,
2009-04-23, 00:45:05,VALID,1004.49,VALID,0,VALID,93.3928,VALID,0,VALID,23.8027,VALID,24,VALID,0,
2009-04-23, 00:46:05,VALID,1004.46,VALID,0,VALID,93.4156,VALID,0,VALID,23.7619,VALID,24,VALID,0,
2009-04-23, 00:47:05,VALID,1004.48,VALID,0,VALID,93.4156,VALID,0,VALID,23.7425,VALID,24,VALID,0,
2009-04-23, 00:48:05,VALID,1004.47,VALID,0,VALID,93.4385,VALID,0,VALID,23.7619,VALID,24,VALID,0,
2009-04-23, 00:49:05,VALID,1004.46,VALID,0,VALID,93.4843,VALID,0,VALID,23.7212,VALID,24,VALID,0,
2009-04-23, 00:50:05,VALID,1004.48,VALID,0,VALID,93.5224,VALID,0,VALID,23.7425,VALID,24,VALID,0,
2009-04-23, 00:51:05,VALID,1004.47,VALID,0,VALID,93.5758,VALID,0,VALID,23.7017,VALID,24,VALID,0,
2009-04-23, 00:52:05,VALID,1004.45,VALID,0,VALID,93.6292,VALID,0,VALID,23.723,VALID,24,VALID,0,
2009-04-23, 00:53:05,VALID,1004.46,VALID,0,VALID,93.6445,VALID,0,VALID,23.7017,VALID,24,VALID,0,
2009-04-23, 00:54:05,VALID,1004.45,VALID,0,VALID,93.6979,VALID,0,VALID,23.7035,VALID,24,VALID,0,
2009-04-23, 00:55:05,VALID,1004.42,VALID,0,VALID,93.7361,VALID,0,VALID,23.6823,VALID,24,VALID,0,
2009-04-23, 00:56:05,VALID,1004.41,VALID,0,VALID,93.7818,VALID,0,VALID,23.7053,VALID,24,VALID,0,
2009-04-23, 00:57:05,VALID,1004.42,VALID,0,VALID,93.8734,VALID,0,VALID,23.7035,VALID,24,VALID,0,
2009-04-23, 00:58:05,VALID,1004.38,VALID,0,VALID,94.0031,VALID,0,VALID,23.7425,VALID,22,VALID,0,
2009-04-23, 00:59:05,VALID,1004.38,VALID,0,VALID,94.0794,VALID,0,VALID,23.7619,VALID,18,VALID,0.30625,
2009-04-23, 01:00:05,VALID,1004.39,VALID,0,VALID,94.0946,VALID,0,VALID,23.7814,VALID,18,VALID,0.376563,
2009-04-23, 01:01:05,VALID,1004.35,VALID,0,VALID,94.0336,VALID,0,VALID,23.7832,VALID,18,VALID,0.50625,
2009-04-23, 01:02:05,VALID,1004.32,VALID,0,VALID,94.0107,VALID,0,VALID,23.7443,VALID,18,VALID,0.319141,
2009-04-23, 01:03:05,VALID,1004.31,VALID,0,VALID,94.0183,VALID,0,VALID,23.7035,VALID,18,VALID,0.132813,
2009-04-23, 01:04:05,VALID,1004.29,VALID,0,VALID,94.0641,VALID,0,VALID,23.7035,VALID,18,VALID,0,
2009-04-23, 01:05:05,VALID,1004.28,VALID,0,VALID,94.0641,VALID,0,VALID,23.7035,VALID,18,VALID,0,
2009-04-23, 01:06:05,VALID,1004.24,VALID,0,VALID,94.087,VALID,0,VALID,23.723,VALID,18,VALID,0,
2009-04-23, 01:07:05,VALID,1004.22,VALID,0,VALID,94.0794,VALID,0,VALID,23.723,VALID,18,VALID,0,
2009-04-23, 01:08:05,VALID,1004.23,VALID,0,VALID,94.1251,VALID,0,VALID,23.7443,VALID,18,VALID,0,
2009-04-23, 01:09:05,VALID,1004.21,VALID,0,VALID,94.1633,VALID,0,VALID,23.723,VALID,18,VALID,0,
2009-04-23, 01:10:05,VALID,1004.21,VALID,0,VALID,94.1175,VALID,0,VALID,23.723,VALID,18,VALID,0.179688,
2009-04-23, 01:11:05,VALID,1004.17,VALID,0,VALID,94.1404,VALID,0,VALID,23.7212,VALID,18,VALID,0,
2009-04-23, 01:12:05,VALID,1004.15,VALID,0,VALID,94.1709,VALID,0,VALID,23.7017,VALID,18,VALID,0,
2009-04-23, 01:13:05,VALID,1004.1,VALID,0,VALID,94.1785,VALID,0,VALID,23.7017,VALID,18,VALID,0,
2009-04-23, 01:14:05,VALID,1004.09,VALID,0,VALID,94.2472,VALID,0,VALID,23.7212,VALID,18,VALID,0,
2009-04-23, 01:15:05,VALID,1004.1,VALID,0,VALID,94.2167,VALID,0.100563,VALID,23.7,VALID,18,VALID,0,
2009-04-23, 01:16:05,VALID,1004.06,VALID,0,VALID,94.2167,VALID,0,VALID,23.7212,VALID,18,VALID,0,
2009-04-23, 01:17:05,VALID,1004.07,VALID,0,VALID,94.2701,VALID,0.100563,VALID,23.7407,VALID,18,VALID,0,
2009-04-23, 01:18:05,VALID,1004.09,VALID,0,VALID,94.3387,VALID,0.100563,VALID,23.7796,VALID,18,VALID,0,
2009-04-23, 01:19:05,VALID,1004.08,VALID,0,VALID,94.3464,VALID,0,VALID,23.7796,VALID,18,VALID,0.351953,
2009-04-23, 01:20:05,VALID,1004.07,VALID,0,VALID,94.2243,VALID,0.100563,VALID,23.7194,VALID,18,VALID,0.233984,
2009-04-23, 01:21:05,VALID,1004.06,VALID,0,VALID,94.2243,VALID,0.100563,VALID,23.7017,VALID,18,VALID,0,
2009-04-23, 01:22:05,VALID,1004.06,VALID,0,VALID,94.2777,VALID,0,VALID,23.7017,VALID,18,VALID,0,
2009-04-23, 01:23:05,VALID,1004.08,VALID,0,VALID,94.3921,VALID,0,VALID,23.7,VALID,18,VALID,0,
2009-04-23, 01:24:05,VALID,1004.09,VALID,0,VALID,94.4532,VALID,0,VALID,23.7796,VALID,18,VALID,0,
2009-04-23, 01:25:05,VALID,1004.09,VALID,0,VALID,94.4303,VALID,0.100563,VALID,23.7796,VALID,18,VALID,0,
2009-04-23, 01:26:05,VALID,1004.1,VALID,0,VALID,94.3998,VALID,0,VALID,23.8009,VALID,18,VALID,0,
2009-04-23, 01:27:05,VALID,1004.12,VALID,0,VALID,94.4303,VALID,0,VALID,23.7796,VALID,18,VALID,0,
2009-04-23, 01:28:05,VALID,1004.13,VALID,0,VALID,94.3998,VALID,0,VALID,23.8009,VALID,18,VALID,0,
2009-04-23, 01:29:05,VALID,1004.14,VALID,0,VALID,94.4074,VALID,0,VALID,23.8009,VALID,18,VALID,0,
2009-04-23, 01:30:05,VALID,1004.16,VALID,0,VALID,94.3921,VALID,0,VALID,23.7814,VALID,18,VALID,0,
2009-04-23, 01:31:05,VALID,1004.13,VALID,0,VALID,94.3845,VALID,0,VALID,23.7814,VALID,18,VALID,0,
2009-04-23, 01:32:05,VALID,1004.12,VALID,0,VALID,94.3158,VALID,0,VALID,23.7619,VALID,18,VALID,0,
2009-04-23, 01:33:05,VALID,1004.1,VALID,0,VALID,94.3387,VALID,0,VALID,23.7212,VALID,18,VALID,0,
2009-04-23, 01:34:05,VALID,1004.11,VALID,0,VALID,94.3616,VALID,0,VALID,23.7619,VALID,18,VALID,0,
2009-04-23, 01:35:05,VALID,1004.09,VALID,0,VALID,94.4074,VALID,0,VALID,23.7619,VALID,18,VALID,0,
2009-04-23, 01:36:05,VALID,1004.14,VALID,0,VALID,94.4608,VALID,0,VALID,23.7814,VALID,18,VALID,0,
2009-04-23, 01:37:05,VALID,1004.12,VALID,0,VALID,94.4608,VALID,0,VALID,23.7814,VALID,18,VALID,0,
2009-04-23, 01:38:05,VALID,1004.13,VALID,0,VALID,94.4837,VALID,0,VALID,23.8009,VALID,18,VALID,0,
2009-04-23, 01:39:05,VALID,1004.13,VALID,0,VALID,94.4837,VALID,0,VALID,23.8009,VALID,18,VALID,0,
2009-04-23, 01:40:05,VALID,1004.1,VALID,0,VALID,94.5218,VALID,0,VALID,23.8203,VALID,18,VALID,0,
2009-04-23, 01:41:05,VALID,1004.07,VALID,0,VALID,94.4989,VALID,0,VALID,23.8416,VALID,18,VALID,0,
2009-04-23, 01:42:05,VALID,1004.05,VALID,0,VALID,94.4761,VALID,0,VALID,23.8203,VALID,18,VALID,0,
2009-04-23, 01:43:05,VALID,1004.05,VALID,0,VALID,94.4455,VALID,0,VALID,23.8009,VALID,18,VALID,0,
2009-04-23, 01:44:05,VALID,1004.06,VALID,0,VALID,94.3921,VALID,0,VALID,23.7814,VALID,19,VALID,0.627344,
2009-04-23, 01:45:05,VALID,1004.04,VALID,0,VALID,94.4684,VALID,0,VALID,23.7814,VALID,24,VALID,0.700781,
2009-04-23, 01:46:05,VALID,1004.05,VALID,0,VALID,94.3311,VALID,0,VALID,23.7212,VALID,24,VALID,0.570313,
2009-04-23, 01:47:05,VALID,1004.03,VALID,0,VALID,94.2243,VALID,0,VALID,23.6646,VALID,24,VALID,0.40625,
2009-04-23, 01:48:05,VALID,1004.03,VALID,0,VALID,94.209,VALID,0,VALID,23.6062,VALID,24,VALID,0.384375,
2009-04-23, 01:49:05,VALID,1003.97,VALID,0,VALID,94.3311,VALID,0,VALID,23.6044,VALID,24,VALID,0.528906,
2009-04-23, 01:50:05,VALID,1003.97,VALID,0,VALID,94.3845,VALID,0,VALID,23.6044,VALID,24,VALID,0.509766,
2009-04-23, 01:51:05,VALID,1003.92,VALID,0,VALID,94.3998,VALID,0,VALID,23.6062,VALID,24,VALID,0.308984,
2009-04-23, 01:52:05,VALID,1003.91,VALID,0,VALID,94.4227,VALID,0,VALID,23.6062,VALID,24,VALID,0.227734,
2009-04-23, 01:53:05,VALID,1003.88,VALID,0,VALID,94.415,VALID,0,VALID,23.5655,VALID,24,VALID,0,
2009-04-23, 01:54:05,VALID,1003.86,VALID,0,VALID,94.4532,VALID,0,VALID,23.585,VALID,24,VALID,0.0332031,
2009-04-23, 01:55:05,VALID,1003.86,VALID,0,VALID,94.5829,VALID,0,VALID,23.6044,VALID,24,VALID,0,
2009-04-23, 01:56:05,VALID,1003.85,VALID,0,VALID,94.5981,VALID,0,VALID,23.6452,VALID,24,VALID,0,
2009-04-23, 01:57:05,VALID,1003.86,VALID,0,VALID,94.6668,VALID,0,VALID,23.7248,VALID,24,VALID,0.122266,
2009-04-23, 01:58:05,VALID,1003.86,VALID,0,VALID,94.5829,VALID,0,VALID,23.6841,VALID,24,VALID,0.318359,
2009-04-23, 01:59:05,VALID,1003.86,VALID,0,VALID,94.4913,VALID,0,VALID,23.6239,VALID,24,VALID,0.473437,
2009-04-23, 02:00:05,VALID,1003.79,VALID,0,VALID,94.5066,VALID,0,VALID,23.6062,VALID,19,VALID,0.605859,
2009-04-23, 02:01:05,VALID,1003.8,VALID,0,VALID,94.5295,VALID,0,VALID,23.6062,VALID,18,VALID,0.517969,
2009-04-23, 02:02:04,VALID,1003.82,VALID,0,VALID,94.56,VALID,0,VALID,23.6062,VALID,16,VALID,0.542969,
2009-04-23, 02:03:04,VALID,1003.84,VALID,0,VALID,94.7354,VALID,0,VALID,23.6452,VALID,9,VALID,0.505469,
2009-04-23, 02:04:04,VALID,1003.89,VALID,0,VALID,94.827,VALID,0,VALID,23.7425,VALID,7,VALID,0.316016,
2009-04-23, 02:05:04,VALID,1003.86,VALID,0,VALID,94.7965,VALID,0,VALID,23.7619,VALID,7,VALID,0.432422,
2009-04-23, 02:06:04,VALID,1003.86,VALID,0,VALID,94.766,VALID,0,VALID,23.7425,VALID,7,VALID,0.485156,
2009-04-23, 02:07:04,VALID,1003.89,VALID,0,VALID,94.6668,VALID,0,VALID,23.723,VALID,7,VALID,0.427344,
2009-04-23, 02:08:04,VALID,1003.9,VALID,0,VALID,94.6591,VALID,0,VALID,23.6841,VALID,6,VALID,0.497656,
2009-04-23, 02:09:04,VALID,1003.91,VALID,0,VALID,94.6897,VALID,0,VALID,23.6823,VALID,4,VALID,0.210938,
2009-04-23, 02:10:04,VALID,1003.9,VALID,0,VALID,94.7125,VALID,0,VALID,23.7035,VALID,4,VALID,0.387891,
2009-04-23, 02:11:04,VALID,1003.88,VALID,0,VALID,94.6668,VALID,0,VALID,23.6841,VALID,4,VALID,0.366797,
2009-04-23, 02:12:04,VALID,1003.86,VALID,0,VALID,94.6515,VALID,0,VALID,23.6841,VALID,4,VALID,0.23125,
2009-04-23, 02:13:04,VALID,1003.86,VALID,0,VALID,94.6286,VALID,0,VALID,23.6239,VALID,4,VALID,0.273438,
2009-04-23, 02:14:04,VALID,1003.85,VALID,0,VALID,94.621,VALID,0,VALID,23.6239,VALID,4,VALID,0.471094,
2009-04-23, 02:15:04,VALID,1003.81,VALID,0,VALID,94.6363,VALID,0,VALID,23.6044,VALID,4,VALID,0.653125,
2009-04-23, 02:16:04,VALID,1003.84,VALID,0,VALID,94.6515,VALID,0,VALID,23.6257,VALID,4,VALID,0.484375,
2009-04-23, 02:17:04,VALID,1003.83,VALID,0,VALID,94.6134,VALID,0,VALID,23.6062,VALID,4,VALID,0.383984,
2009-04-23, 02:18:04,VALID,1003.83,VALID,0,VALID,94.5829,VALID,0,VALID,23.5673,VALID,4,VALID,0.367188,
2009-04-23, 02:19:04,VALID,1003.85,VALID,0,VALID,94.5829,VALID,0,VALID,23.5478,VALID,4,VALID,0.510156,
2009-04-23, 02:20:04,VALID,1003.87,VALID,0,VALID,94.7049,VALID,0,VALID,23.5266,VALID,4,VALID,0.555078,
2009-04-23, 02:21:04,VALID,1003.87,VALID,0,VALID,94.7888,VALID,0,VALID,23.5868,VALID,4,VALID,0.544141,
2009-04-23, 02:22:04,VALID,1003.89,VALID,0,VALID,94.766,VALID,0,VALID,23.5868,VALID,4,VALID,0.548828,
2009-04-23, 02:23:04,VALID,1003.9,VALID,0,VALID,94.7583,VALID,0,VALID,23.5868,VALID,4,VALID,0.536328,
2009-04-23, 02:24:04,VALID,1003.9,VALID,0,VALID,94.7354,VALID,0,VALID,23.546,VALID,4,VALID,0.648438,
2009-04-23, 02:25:04,VALID,1003.89,VALID,0,VALID,94.7125,VALID,0,VALID,23.5478,VALID,4,VALID,0.539063,
2009-04-23, 02:26:04,VALID,1003.88,VALID,0,VALID,94.6973,VALID,0,VALID,23.5284,VALID,4,VALID,0.464453,
2009-04-23, 02:27:04,VALID,1003.88,VALID,0,VALID,94.6973,VALID,0,VALID,23.5284,VALID,4,VALID,0.333203,
2009-04-23, 02:28:04,VALID,1003.88,VALID,0,VALID,94.7278,VALID,0,VALID,23.5284,VALID,4,VALID,0.26875,
2009-04-23, 02:29:04,VALID,1003.86,VALID,0,VALID,94.827,VALID,0,VALID,23.5284,VALID,4,VALID,0.176563,
2009-04-23, 02:30:04,VALID,1003.86,VALID,0,VALID,94.8728,VALID,0,VALID,23.585,VALID,4,VALID,0.191016,
2009-04-23, 02:31:04,VALID,1003.83,VALID,0,VALID,94.9262,VALID,0,VALID,23.6628,VALID,4,VALID,0.175,
2009-04-23, 02:32:04,VALID,1003.83,VALID,0,VALID,94.9414,VALID,0,VALID,23.7035,VALID,4,VALID,0.461328,
2009-04-23, 02:33:04,VALID,1003.77,VALID,0,VALID,94.8956,VALID,0,VALID,23.6452,VALID,4,VALID,0.399609,
2009-04-23, 02:34:04,VALID,1003.75,VALID,0,VALID,94.8575,VALID,0,VALID,23.6062,VALID,4,VALID,0.411719,
2009-04-23, 02:35:04,VALID,1003.71,VALID,0,VALID,94.8346,VALID,0,VALID,23.6044,VALID,4,VALID,0.5625,
2009-04-23, 02:36:04,VALID,1003.73,VALID,0,VALID,94.8422,VALID,0,VALID,23.6239,VALID,4,VALID,0.690234,
2009-04-23, 02:37:04,VALID,1003.69,VALID,0,VALID,94.8499,VALID,0,VALID,23.6239,VALID,4,VALID,0.374219,
2009-04-23, 02:38:04,VALID,1003.7,VALID,0,VALID,94.8575,VALID,0,VALID,23.6646,VALID,4,VALID,0.553906,
2009-04-23, 02:39:04,VALID,1003.64,VALID,0,VALID,94.8499,VALID,0,VALID,23.6452,VALID,4,VALID,0.55,
2009-04-23, 02:40:04,VALID,1003.67,VALID,0,VALID,94.8346,VALID,0,VALID,23.6239,VALID,4,VALID,0.480078,
2009-04-23, 02:41:04,VALID,1003.64,VALID,0,VALID,94.8194,VALID,0,VALID,23.6062,VALID,4,VALID,0.212891,
2009-04-23, 02:42:04,VALID,1003.62,VALID,0,VALID,94.7354,VALID,0,VALID,23.5655,VALID,4,VALID,0.372656,
2009-04-23, 02:43:04,VALID,1003.66,VALID,0,VALID,94.7507,VALID,0,VALID,23.5868,VALID,4,VALID,0.403516,
2009-04-23, 02:44:04,VALID,1003.62,VALID,0,VALID,94.7812,VALID,0,VALID,23.5655,VALID,4,VALID,0.235547,
2009-04-23, 02:45:04,VALID,1003.62,VALID,0,VALID,94.7888,VALID,0,VALID,23.5673,VALID,4,VALID,0.202344,
2009-04-23, 02:46:04,VALID,1003.63,VALID,0,VALID,94.7507,VALID,0,VALID,23.5478,VALID,4,VALID,0.187891,
2009-04-23, 02:47:04,VALID,1003.6,VALID,0,VALID,94.7507,VALID,0,VALID,23.5478,VALID,4,VALID,0.248828,
2009-04-23, 02:48:04,VALID,1003.57,VALID,0,VALID,94.682,VALID,0,VALID,23.4894,VALID,4,VALID,0.363672,
2009-04-23, 02:49:04,VALID,1003.54,VALID,0,VALID,94.6363,VALID,0,VALID,23.4505,VALID,4,VALID,0.371875,
2009-04-23, 02:50:04,VALID,1003.54,VALID,0,VALID,94.5905,VALID,0,VALID,23.3904,VALID,4,VALID,0.411328,
2009-04-23, 02:51:04,VALID,1003.57,VALID,0,VALID,94.6515,VALID,0,VALID,23.3921,VALID,4,VALID,0.476953,
2009-04-23, 02:52:04,VALID,1003.58,VALID,0,VALID,94.6744,VALID,0,VALID,23.3709,VALID,4,VALID,0.18125,
2009-04-23, 02:53:04,VALID,1003.52,VALID,0,VALID,94.7202,VALID,0,VALID,23.4116,VALID,4,VALID,0.0546875,
2009-04-23, 02:54:04,VALID,1003.49,VALID,0,VALID,94.766,VALID,0,VALID,23.4116,VALID,4,VALID,0,
2009-04-23, 02:55:04,VALID,1003.48,VALID,0,VALID,94.8499,VALID,0,VALID,23.4487,VALID,4,VALID,0.0890625,
2009-04-23, 02:56:04,VALID,1003.44,VALID,0,VALID,94.8651,VALID,0,VALID,23.4682,VALID,4,VALID,0.16875,
2009-04-23, 02:57:04,VALID,1003.49,VALID,0,VALID,94.8499,VALID,0,VALID,23.5089,VALID,4,VALID,0.110937,
2009-04-23, 02:58:04,VALID,1003.5,VALID,0,VALID,94.8651,VALID,0,VALID,23.5089,VALID,4,VALID,0,
2009-04-23, 02:59:04,VALID,1003.51,VALID,0,VALID,94.9033,VALID,0,VALID,23.6062,VALID,4,VALID,0.321875,
2009-04-23, 03:00:04,VALID,1003.5,VALID,0,VALID,94.9338,VALID,0,VALID,23.6257,VALID,4,VALID,0.232422,
2009-04-23, 03:01:04,VALID,1003.48,VALID,0,VALID,94.9262,VALID,0,VALID,23.6062,VALID,4,VALID,0,
2009-04-23, 03:02:04,VALID,1003.49,VALID,0,VALID,94.9185,VALID,0,VALID,23.5673,VALID,4,VALID,0.192578,
2009-04-23, 03:03:04,VALID,1003.53,VALID,0,VALID,94.8728,VALID,0,VALID,23.5691,VALID,4,VALID,0,
2009-04-23, 03:04:04,VALID,1003.51,VALID,0,VALID,94.8956,VALID,0,VALID,23.5868,VALID,4,VALID,0,
2009-04-23, 03:05:04,VALID,1003.54,VALID,0,VALID,94.888,VALID,0,VALID,23.6062,VALID,4,VALID,0,
2009-04-23, 03:06:04,VALID,1003.54,VALID,0,VALID,94.9109,VALID,0,VALID,23.6257,VALID,4,VALID,0,
2009-04-23, 03:07:04,VALID,1003.58,VALID,0,VALID,94.8956,VALID,0,VALID,23.6257,VALID,4,VALID,0,
2009-04-23, 03:08:04,VALID,1003.58,VALID,0,VALID,94.9185,VALID,0,VALID,23.6239,VALID,4,VALID,0,
2009-04-23, 03:09:04,VALID,1003.58,VALID,0,VALID,94.9033,VALID,0,VALID,23.6257,VALID,4,VALID,0.282031,
2009-04-23, 03:10:04,VALID,1003.56,VALID,0,VALID,94.8728,VALID,0,VALID,23.5868,VALID,4,VALID,0.417578,
2009-04-23, 03:11:04,VALID,1003.58,VALID,0,VALID,94.7049,VALID,0,VALID,23.5089,VALID,4,VALID,0.51875,
2009-04-23, 03:12:04,VALID,1003.57,VALID,0,VALID,94.6591,VALID,0,VALID,23.4505,VALID,4,VALID,0.348437,
2009-04-23, 03:13:04,VALID,1003.57,VALID,0,VALID,94.6363,VALID,0,VALID,23.4311,VALID,4,VALID,0.277734,
2009-04-23, 03:14:04,VALID,1003.6,VALID,0,VALID,94.6057,VALID,0,VALID,23.3514,VALID,4,VALID,0.373437,
2009-04-23, 03:15:04,VALID,1003.6,VALID,0,VALID,94.5981,VALID,0,VALID,23.332,VALID,4,VALID,0.447266,
2009-04-23, 03:16:04,VALID,1003.63,VALID,0,VALID,94.7583,VALID,0,VALID,23.3709,VALID,4,VALID,0.576172,
2009-04-23, 03:17:04,VALID,1003.66,VALID,0,VALID,94.8728,VALID,0,VALID,23.4293,VALID,4,VALID,0.578516,
2009-04-23, 03:18:04,VALID,1003.66,VALID,0,VALID,94.8956,VALID,0,VALID,23.4894,VALID,4,VALID,0.526953,
2009-04-23, 03:19:04,VALID,1003.63,VALID,0,VALID,94.9109,VALID,0,VALID,23.5071,VALID,4,VALID,0.369531,
2009-04-23, 03:20:04,VALID,1003.61,VALID,0,VALID,94.9262,VALID,0,VALID,23.5089,VALID,4,VALID,0.190625,
2009-04-23, 03:21:04,VALID,1003.62,VALID,0,VALID,94.9262,VALID,0,VALID,23.5071,VALID,4,VALID,0.219141,
2009-04-23, 03:22:04,VALID,1003.61,VALID,0,VALID,94.9262,VALID,0,VALID,23.5071,VALID,4,VALID,0.400781,
2009-04-23, 03:23:04,VALID,1003.54,VALID,0,VALID,94.9109,VALID,0,VALID,23.4894,VALID,4,VALID,0.352734,
2009-04-23, 03:24:04,VALID,1003.5,VALID,0,VALID,94.8956,VALID,0,VALID,23.4894,VALID,4,VALID,0.0792969,
2009-04-23, 03:25:04,VALID,1003.49,VALID,0,VALID,94.8956,VALID,0,VALID,23.4894,VALID,4,VALID,0.128906,
2009-04-23, 03:26:04,VALID,1003.52,VALID,0,VALID,94.8956,VALID,0,VALID,23.4894,VALID,4,VALID,0.0664063,
2009-04-23, 03:27:04,VALID,1003.53,VALID,0,VALID,94.888,VALID,0,VALID,23.4718,VALID,4,VALID,0.458203,
2009-04-23, 03:28:04,VALID,1003.51,VALID,0,VALID,94.8041,VALID,0,VALID,23.4098,VALID,4,VALID,0.381641,
2009-04-23, 03:29:04,VALID,1003.53,VALID,0,VALID,94.7812,VALID,0,VALID,23.3921,VALID,4,VALID,0.473047,
2009-04-23, 03:30:04,VALID,1003.54,VALID,0,VALID,94.827,VALID,0,VALID,23.3727,VALID,4,VALID,0.560547,
2009-04-23, 03:31:04,VALID,1003.51,VALID,0,VALID,94.8422,VALID,0,VALID,23.3514,VALID,4,VALID,0.223438,
2009-04-23, 03:32:04,VALID,1003.49,VALID,0,VALID,94.8728,VALID,0,VALID,23.3921,VALID,4,VALID,0,
2009-04-23, 03:33:04,VALID,1003.55,VALID,0,VALID,94.8804,VALID,0,VALID,23.4116,VALID,4,VALID,0.10625,
2009-04-23, 03:34:04,VALID,1003.57,VALID,0,VALID,94.8956,VALID,0,VALID,23.47,VALID,4,VALID,0,
2009-04-23, 03:35:04,VALID,1003.6,VALID,0,VALID,94.9414,VALID,0,VALID,23.4894,VALID,4,VALID,0.000390625,
2009-04-23, 03:36:04,VALID,1003.64,VALID,0,VALID,94.9719,VALID,0,VALID,23.5284,VALID,4,VALID,0.284766,
2009-04-23, 03:37:04,VALID,1003.65,VALID,0,VALID,95.0177,VALID,0,VALID,23.6062,VALID,4,VALID,0.295312,
2009-04-23, 03:38:04,VALID,1003.65,VALID,0,VALID,95.0101,VALID,0,VALID,23.6062,VALID,4,VALID,0.403125,
2009-04-23, 03:39:04,VALID,1003.65,VALID,0,VALID,95.0024,VALID,0,VALID,23.5266,VALID,4,VALID,0.505859,
2009-04-23, 03:40:04,VALID,1003.67,VALID,0,VALID,94.9796,VALID,0,VALID,23.5284,VALID,4,VALID,0.474609,
2009-04-23, 03:41:04,VALID,1003.63,VALID,0,VALID,94.9872,VALID,0,VALID,23.546,VALID,4,VALID,0.292578,
2009-04-23, 03:42:04,VALID,1003.65,VALID,0,VALID,95.0024,VALID,0,VALID,23.5868,VALID,4,VALID,0,
2009-04-23, 03:43:04,VALID,1003.63,VALID,0,VALID,95.0406,VALID,0,VALID,23.6664,VALID,4,VALID,0.00390625,
2009-04-23, 03:44:04,VALID,1003.63,VALID,0,VALID,95.033,VALID,0,VALID,23.6257,VALID,4,VALID,0.240234,
2009-04-23, 03:45:04,VALID,1003.61,VALID,0,VALID,95.0024,VALID,0,VALID,23.5868,VALID,4,VALID,0.289844,
2009-04-23, 03:46:04,VALID,1003.61,VALID,0,VALID,94.9719,VALID,0,VALID,23.546,VALID,4,VALID,0.394141,
2009-04-23, 03:47:04,VALID,1003.61,VALID,0,VALID,94.9796,VALID,0,VALID,23.5868,VALID,4,VALID,0.305469,
2009-04-23, 03:48:04,VALID,1003.64,VALID,0,VALID,94.9948,VALID,0,VALID,23.6062,VALID,4,VALID,0.13125,
2009-04-23, 03:49:04,VALID,1003.64,VALID,0,VALID,95.0024,VALID,0,VALID,23.6062,VALID,4,VALID,0.00078125,
2009-04-23, 03:50:04,VALID,1003.65,VALID,0,VALID,95.0024,VALID,0,VALID,23.585,VALID,4,VALID,0.347656,
2009-04-23, 03:51:04,VALID,1003.67,VALID,0,VALID,94.9872,VALID,0,VALID,23.5637,VALID,4,VALID,0.428125,
2009-04-23, 03:52:04,VALID,1003.68,VALID,0,VALID,94.9948,VALID,0,VALID,23.6062,VALID,4,VALID,0.563281,